Weili Kongjian 01-02

operational
NORAD ID: 62577 Int'l Des: 2025-007 Owner: CENTI Country: CN
LEOCIRCULAR

Weili Kongjian 01-02について

説明を読み込み中...

リアルタイム位置

3D地球を読み込み中...

次回通過

高度履歴

Altitude vs Time

uPlot chart will show altitude changes over time

軌道要素

1 62577U 25007C 26062.09729085 -.00000012 00000-0 11235-3 0 9996
2 62577 54.9857 302.6947 0008608 272.8135 87.1839 13.86507543 60079
Epoch: Mar 3, 2026 • Age: 19 hours

現在のステータス

高度 946.5 km
速度 7.38 km/s
衛星直下点 -29.00°S, 57.22°E
打ち上げ日 Jan 13, 2025
運用期間 1.1 years
タイプ other

技術仕様

分類 Payload
質量 140.00 kg
乾燥質量 140.00 kg
総質量 140.00 kg
長さ 1.00 m
直径 0.50 m
スパン 2.00 m
形状 Box + 2 pan
製造者 DFHS
バスタイプ WK01
フェーズステータス In Orbit
所有者/国 CENTI/CN

大規模コンステレーション

Loading constellations...